[[{"header":{"parameterUnit":"m.s-1","parameterCategory":1,"la1":30.2991,"la2":30.254,"lo1":-89.0895,"lo2":-89.0444,"dy":0.0017,"dx":0.0017,"nx":28,"ny":28,"refTime":"2025-08-02T09:00:00:Z","depth":0,"parameterNumber":2,"parameterNumberName":"U-component_of_WINDS"},"data":[0,0,0,0,0,0,0,0,0,0,0,0,0,0,0,0,0,0,0,0,0,0,0,0,0,0,0,0,0,0,0,0,0,0,0,0,0,0,0,0,0,0,0,0,0,0,0,0,0,0,0,0,0,0,0,0,0,0,-0.865,-0.8651,0,-0.8682,-0.8683,-0.8683,-0.8707,-0.8707,-0.8708,-0.8708,-0.874,-0.874,-0.8741,0,0,0,0,0,0,0,0,0,0,0,0,0,-0.861,-0.8611,-0.865,-0.8651,-0.8651,-0.8682,-0.8683,-0.8683,-0.8707,-0.8707,-0.8708,-0.8708,-0.874,-0.874,-0.8741,0,0,0,0,0,0,0,0,0,0,0,0,0,-0.8633,-0.8611,-0.865,-0.8667,-0.8669,-0.8682,-0.8683,-0.8683,-0.8707,-0.8707,-0.8708,-0.8708,-0.8739,-0.874,-0.8741,-0.874,0,0,-0.8744,-0.8745,0,0,0,0,0,0,0,0,-0.8632,-0.8635,-0.8664,-0.8666,-0.8668,-0.8691,-0.868,-0.8702,-0.8707,-0.8692,-0.8708,-0.8708,-0.8723,-0.8726,-0.8731,-0.8742,-0.8743,-0.8744,-0.8745,-0.8745,-0.8745,0,0,0,0,0,0,0,-0.863,-0.8634,-0.8663,-0.8664,-0.8667,-0.8673,-0.8676,-0.8684,-0.8706,-0.8694,-0.8696,-0.8699,-0.8724,-0.873,-0.8732,-0.8744,-0.8744,-0.8745,-0.8746,-0.8746,-0.8756,-0.8756,0,0,0,0,0,0,-0.8626,-0.8632,-0.8662,-0.8664,-0.865,-0.8673,-0.8677,-0.8683,-0.8706,-0.8709,-0.8699,-0.87,-0.8728,-0.8731,-0.8733,-0.8734,-0.8745,-0.8746,-0.8747,-0.8756,-0.8756,-0.8755,0,0,0,0,0,0,-0.8625,-0.8629,-0.8661,-0.8648,-0.8653,-0.8673,-0.868,-0.8684,-0.8689,-0.8709,-0.8713,-0.87,-0.8728,-0.8732,-0.8738,-0.8735,-0.8747,-0.8747,-0.8757,-0.8756,-0.8756,-0.8735,0,0,0,0,0,0,-0.8624,-0.8628,-0.8628,-0.8648,-0.8654,-0.8666,-0.868,-0.8684,-0.8691,-0.8693,-0.8712,-0.8715,-0.8729,-0.8737,-0.8739,-0.8737,-0.8748,-0.8757,-0.8756,-0.8756,-0.8736,-0.8733,-0.8732,0,0,0,0,0,-0.8622,-0.8621,-0.8628,-0.8631,-0.8654,-0.8665,-0.8668,-0.8684,-0.869,-0.8691,-0.8704,-0.8715,-0.8735,-0.8737,-0.874,-0.8738,-0.8757,-0.8756,-0.8756,-0.8737,-0.8734,-0.8732,0,0,0,0,0,0,-0.8599,-0.8624,-0.8632,-0.8637,-0.8649,-0.867,-0.867,-0.8681,-0.8691,-0.8693,-0.8711,-0.8716,-0.872,-0.873,-0.8732,-0.8738,-0.8747,-0.8747,-0.8732,-0.8729,-0.8727,-0.8725,-0.8749,0,0,0,0,0,-0.8595,-0.8602,-0.8623,-0.8625,-0.8631,-0.8649,-0.8655,-0.8666,-0.8679,-0.8685,-0.8698,-0.871,-0.8719,-0.8725,-0.8734,-0.8737,-0.8742,-0.8737,-0.8735,-0.8733,-0.8733,-0.8735,-0.8733,-0.8753,-0.8753,-0.8753,0,0,-0.8586,-0.86,-0.8603,-0.8621,-0.8632,-0.8639,-0.8654,-0.8661,-0.8666,-0.8686,-0.8693,-0.8703,-0.8718,-0.8723,-0.8726,-0.8731,-0.8728,-0.8732,-0.873,-0.8731,-0.8734,-0.8732,-0.873,-0.8753,-0.8753,-0.8753,0,0,-0.8573,-0.8584,-0.8587,-0.8598,-0.8614,-0.8626,-0.8627,-0.8646,-0.8654,-0.8661,-0.8676,-0.8683,-0.8698,-0.8708,-0.8715,-0.8706,-0.8717,-0.8708,-0.8698,-0.87,-0.8698,-0.8697,-0.8693,-0.8692,-0.8708,-0.8708,-0.8708,0,-0.8559,-0.8571,-0.8588,-0.8594,-0.8601,-0.8619,-0.8623,-0.8632,-0.865,-0.8655,-0.866,-0.868,-0.8691,-0.8699,-0.8696,-0.8702,-0.8703,-0.8706,-0.8697,-0.8696,-0.8695,-0.8692,-0.8691,-0.8707,-0.8707,-0.8707,-0.8707,0,-0.8553,-0.8561,-0.8562,-0.8579,-0.8586,-0.8591,-0.8609,-0.8614,-0.8624,-0.8636,-0.8644,-0.8658,-0.8671,-0.8673,-0.8683,-0.8682,-0.8685,-0.8693,-0.8703,-0.8692,-0.8689,-0.8688,-0.8705,-0.8706,-0.8706,-0.8706,0,0,-0.8527,-0.8553,-0.8553,-0.8561,-0.858,-0.8587,-0.8592,-0.8605,-0.8609,-0.8621,-0.8626,-0.8639,-0.8647,-0.8655,-0.8666,-0.8668,-0.866,-0.8676,-0.8677,-0.8673,-0.8659,-0.8653,-0.8651,-0.8667,-0.8667,-0.8667,-0.8658,0,-0.8517,-0.8528,-0.8543,-0.8549,-0.8556,-0.8574,-0.8578,-0.859,-0.8601,-0.8609,-0.8621,-0.863,-0.864,-0.8645,-0.8647,-0.866,-0.8657,-0.8661,-0.8672,-0.8672,-0.8668,-0.865,-0.8643,-0.8635,-0.8657,-0.8657,-0.8657,0,-0.8506,-0.8518,-0.8524,-0.8543,-0.8546,-0.855,-0.8563,-0.8571,-0.8585,-0.8592,-0.8601,-0.8614,-0.862,-0.8629,-0.8638,-0.8641,-0.8646,-0.8653,-0.8653,-0.8655,-0.8664,-0.8651,-0.8632,-0.8631,-0.8656,-0.8656,-0.8656,0,-0.8486,-0.8503,-0.8509,-0.8516,-0.8537,-0.854,-0.8549,-0.8563,-0.857,-0.8581,-0.8586,-0.8597,-0.8604,-0.8612,-0.8628,-0.8633,-0.8635,-0.8645,-0.8642,-0.8642,-0.8642,-0.8642,-0.8623,-0.8645,-0.8645,-0.8645,-0.8645,0,-0.8474,-0.8477,-0.8501,-0.8504,-0.8509,-0.8526,-0.853,-0.8541,-0.8553,-0.8559,-0.8575,-0.858,-0.86,-0.8608,-0.862,-0.8625,-0.8628,-0.8635,-0.8638,-0.8633,-0.8633,-0.8637,-0.8638,-0.8645,-0.8645,-0.8645,-0.8645,0,-0.8452,-0.8468,-0.8476,-0.8496,-0.8501,-0.8503,-0.852,-0.8525,-0.8537,-0.8544,-0.8547,-0.8565,-0.8575,-0.8591,-0.8606,-0.8614,-0.8617,-0.8622,-0.8613,-0.8615,-0.8611,-0.8611,-0.8595,-0.8594,-0.8615,-0.8615,-0.8615,0,-0.8443,-0.8446,-0.8466,-0.8472,-0.848,-0.8489,-0.8496,-0.8513,-0.852,-0.8536,-0.8538,-0.8549,-0.8559,-0.8574,-0.8588,-0.8599,-0.8605,-0.8599,-0.8607,-0.8602,-0.8605,-0.8605,-0.8605,-0.8597,-0.8597,-0.8596,-0.8596,0,-0.8425,-0.8433,-0.8443,-0.8455,-0.8463,-0.8473,-0.8484,-0.8488,-0.8507,-0.8514,-0.8524,-0.8532,-0.8547,-0.8557,-0.8571,-0.858,-0.8591,-0.8593,-0.8593,-0.8589,-0.8583,-0.8586,-0.8608,-0.8594,-0.8594,-0.8594,-0.8594,-0.8594,-0.841,-0.8414,-0.8428,-0.8438,-0.8449,-0.8459,-0.8464,-0.8476,-0.8485,-0.8499,-0.8509,-0.8518,-0.8532,-0.8551,-0.856,-0.8568,-0.8573,-0.8572,-0.8572,-0.8572,-0.8571,-0.8582,-0.857,-0.857,-0.857,-0.857,-0.857,0,-0.8393,-0.8404,-0.8413,-0.8428,-0.8436,-0.8446,-0.8459,-0.8465,-0.8473,-0.8485,-0.8495,-0.8506,-0.8517,-0.8532,-0.8544,-0.8547,-0.8553,-0.855,-0.855,-0.8552,-0.8565,-0.8564,-0.8545,-0.8545,-0.8545,-0.8545,-0.8545,-0.8545,-0.8386,-0.8392,-0.8402,-0.8413,-0.8424,-0.8434,-0.844,-0.8449,-0.8459,-0.8472,-0.8481,-0.8491,-0.8504,-0.8517,-0.8527,-0.8532,-0.8535,-0.8531,-0.8536,-0.8549,-0.8551,-0.8553,-0.8552,-0.8531,-0.8531,-0.8523,-0.8523,-0.8522]},{"header":{"parameterUnit":"m.s-1","parameterCategory":1,"la1":30.2991,"la2":30.254,"lo1":-89.0895,"lo2":-89.0444,"dy":0.0017,"dx":0.0017,"nx":28,"ny":28,"refTime":"2025-08-02T09:00:00:Z","depth":0,"parameterNumber":3,"parameterNumberName":"V-component_of_WINDS"},"data":[0,0,0,0,0,0,0,0,0,0,0,0,0,0,0,0,0,0,0,0,0,0,0,0,0,0,0,0,0,0,0,0,0,0,0,0,0,0,0,0,0,0,0,0,0,0,0,0,0,0,0,0,0,0,0,0,0,0,0.657,0.657,0,0.661,0.661,0.6611,0.6586,0.6585,0.6583,0.6582,0.6622,0.6624,0.6626,0,0,0,0,0,0,0,0,0,0,0,0,0,0.6472,0.6474,0.657,0.657,0.6571,0.661,0.661,0.6611,0.6586,0.6585,0.6583,0.6582,0.6621,0.6623,0.6626,0,0,0,0,0,0,0,0,0,0,0,0,0,0.6513,0.6474,0.657,0.6563,0.6563,0.6609,0.661,0.6611,0.6586,0.6585,0.6583,0.6581,0.662,0.6623,0.6626,0.6681,0,0,0.6636,0.6637,0,0,0,0,0,0,0,0,0.6511,0.6517,0.6564,0.6564,0.6564,0.6591,0.659,0.6634,0.6587,0.6577,0.6582,0.658,0.6613,0.6616,0.6628,0.6683,0.6684,0.6636,0.6638,0.664,0.6641,0,0,0,0,0,0,0,0.6508,0.6515,0.6586,0.6564,0.6564,0.6558,0.6562,0.6598,0.6604,0.6578,0.6576,0.6582,0.6612,0.6625,0.6628,0.6685,0.6636,0.6639,0.6641,0.6642,0.6787,0.6789,0,0,0,0,0,0,0.6506,0.6513,0.6584,0.6587,0.6532,0.6561,0.6566,0.6584,0.6604,0.6605,0.6583,0.658,0.662,0.6625,0.663,0.6695,0.664,0.6643,0.6644,0.6785,0.6788,0.679,0,0,0,0,0,0,0.6504,0.6512,0.6583,0.6549,0.6558,0.6565,0.6586,0.6586,0.6598,0.6608,0.6608,0.6594,0.6619,0.6625,0.6669,0.6696,0.6644,0.6647,0.6783,0.6786,0.6789,0.6826,0,0,0,0,0,0,0.6501,0.6512,0.6533,0.655,0.656,0.6621,0.6587,0.6588,0.6604,0.66,0.6619,0.662,0.6618,0.6664,0.6672,0.6699,0.6649,0.678,0.6784,0.6788,0.6822,0.683,0.6836,0,0,0,0,0,0.6498,0.6541,0.6534,0.6543,0.6586,0.6623,0.6628,0.6626,0.6606,0.6627,0.6633,0.6619,0.6692,0.6669,0.6677,0.6706,0.6779,0.6783,0.6787,0.6819,0.6828,0.6836,0,0,0,0,0,0,0.6526,0.6543,0.6535,0.6586,0.6603,0.6619,0.6645,0.6635,0.6658,0.6654,0.6649,0.6654,0.6699,0.6707,0.6681,0.676,0.6732,0.6738,0.6753,0.6762,0.6769,0.6766,0.6652,0,0,0,0,0,0.6539,0.6568,0.6581,0.6624,0.6633,0.6638,0.6654,0.665,0.6668,0.6675,0.6684,0.6701,0.6728,0.6745,0.677,0.6823,0.6827,0.6848,0.6855,0.686,0.6866,0.6894,0.6904,0.6804,0.6804,0.6804,0,0,0.6564,0.6577,0.6595,0.663,0.6643,0.6673,0.6644,0.6676,0.6698,0.6679,0.6721,0.6729,0.6748,0.6796,0.6818,0.6804,0.6894,0.6866,0.687,0.6872,0.69,0.6909,0.6917,0.6807,0.6806,0.6806,0,0,0.6626,0.6639,0.6676,0.669,0.671,0.6713,0.6723,0.674,0.6744,0.6786,0.6773,0.6798,0.6844,0.6858,0.6872,0.694,0.6928,0.6948,0.6984,0.7012,0.702,0.7027,0.7051,0.706,0.6953,0.6954,0.6954,0,0.6655,0.6699,0.6697,0.6731,0.6746,0.6731,0.6769,0.6783,0.681,0.6821,0.6805,0.6863,0.6875,0.6926,0.6943,0.6954,0.6964,0.6946,0.7019,0.7026,0.7032,0.7055,0.7064,0.6956,0.6956,0.6955,0.6955,0,0.6734,0.6765,0.6793,0.6821,0.6839,0.6875,0.6878,0.6897,0.6893,0.6897,0.694,0.6954,0.6981,0.6993,0.6989,0.7045,0.7035,0.702,0.6991,0.7044,0.7066,0.7074,0.6959,0.6958,0.6958,0.6957,0,0,0.6814,0.684,0.685,0.6863,0.6885,0.6908,0.6944,0.6971,0.6988,0.7008,0.7037,0.7077,0.7063,0.7078,0.7074,0.7099,0.7152,0.708,0.7081,0.7093,0.7214,0.7226,0.7236,0.7145,0.7146,0.7148,0.7213,0,0.6876,0.6938,0.6937,0.6995,0.7023,0.701,0.7041,0.7057,0.7063,0.7088,0.7094,0.7122,0.7101,0.711,0.7134,0.7141,0.7176,0.7136,0.7171,0.7173,0.7167,0.7247,0.7259,0.732,0.7221,0.7223,0.7224,0,0.6957,0.6981,0.7041,0.7059,0.7071,0.7099,0.7124,0.7149,0.7167,0.7169,0.7187,0.718,0.7216,0.7187,0.7236,0.7208,0.7223,0.7228,0.7231,0.7233,0.7201,0.7252,0.7339,0.7348,0.7237,0.7236,0.7235,0,0.7009,0.7055,0.7098,0.7109,0.7131,0.7151,0.7161,0.7178,0.7195,0.7217,0.7228,0.7254,0.7268,0.7289,0.7289,0.7268,0.7338,0.731,0.7341,0.7341,0.7355,0.7354,0.7446,0.7366,0.7366,0.7365,0.7365,0,0.7079,0.7116,0.7121,0.7147,0.7189,0.7187,0.7228,0.7237,0.7252,0.7279,0.7269,0.7295,0.7294,0.732,0.7321,0.7361,0.7367,0.737,0.737,0.7371,0.737,0.7379,0.7375,0.7368,0.7367,0.7367,0.7366,0,0.7143,0.7148,0.7193,0.7211,0.7217,0.7246,0.7261,0.7286,0.7291,0.7325,0.7333,0.7341,0.7371,0.7374,0.7408,0.7409,0.7458,0.7453,0.7451,0.745,0.7481,0.7478,0.7582,0.7595,0.7507,0.7507,0.7508,0,0.7187,0.7216,0.7237,0.7255,0.7266,0.7295,0.7312,0.7313,0.7331,0.7355,0.7377,0.7406,0.7429,0.7478,0.7486,0.7513,0.7509,0.7543,0.7512,0.7513,0.7509,0.7507,0.751,0.7549,0.755,0.755,0.7551,0,0.7264,0.7266,0.7291,0.7319,0.734,0.7361,0.7381,0.7396,0.7399,0.742,0.7451,0.7469,0.7505,0.7535,0.7561,0.7571,0.7561,0.7561,0.7569,0.757,0.7568,0.757,0.7467,0.7558,0.7558,0.7557,0.7557,0.7556,0.7319,0.7344,0.7364,0.7393,0.7408,0.7427,0.7451,0.746,0.7486,0.7515,0.7514,0.7548,0.7567,0.7601,0.7613,0.764,0.7628,0.7641,0.7644,0.7647,0.765,0.7565,0.7645,0.7644,0.7644,0.7644,0.7644,0,0.7396,0.7408,0.7435,0.7463,0.7487,0.7477,0.7499,0.7518,0.7549,0.7567,0.7591,0.7627,0.7655,0.7666,0.7694,0.7713,0.771,0.772,0.7719,0.7721,0.7659,0.7648,0.7723,0.7723,0.7723,0.7723,0.7723,0.7723,0.7438,0.748,0.7484,0.7533,0.7544,0.7579,0.7592,0.7609,0.7624,0.7665,0.7689,0.7696,0.7711,0.774,0.7766,0.7769,0.7779,0.7792,0.7792,0.7734,0.7726,0.7718,0.7708,0.7794,0.7794,0.7853,0.7853,0.7854]}]]